Weather History for Tarboro, NC

Change the Weather History Date:

Tuesday, October 2, 2012

  Actual Average Record
Temperature  
Mean Temperature 76 °F -  
Max Temperature 85 °F 78 °F 95 °F (2014)
Min Temperature 68 °F 53 °F 38 °F (1992)
Cooling Degree Days 12    
Growing Degree Days 26 (Base 50)    
Moisture  
Dew Point 72 °F    
Average Humidity 87    
Maximum Humidity 95    
Minimum Humidity 71    
Precipitation  
Precipitation 0.03 in - - ()
Sea Level Pressure  
Sea Level Pressure 29.89 in    
Wind  
Wind Speed 3 mph (SSE)    
Max Wind Speed 9 mph    
Max Gust Speed -    
Visibility 8 miles    
Events Fog , Rain    
Averages and records for this station are not official NWS values.
T = Trace of Precipitation, MM = Missing Value Source: NWS Daily Summary

Daily Weather History Graph

Daily Weather History Graph

Search for Another Location

Airport:

Trip Planner

Search our weather history database for the weather conditions in past years. The results will help you decide how hot, cold, wet, or windy it might be!

Date:

Astronomy

Oct. 02, 2012 Rise Set
Actual Time 7:06 AM EDT 6:51 PM EDT
Civil Twilight 6:40 AM EDT 7:17 PM EDT
Nautical Twilight 6:11 AM EDT 7:46 PM EDT
Astronomical Twilight 5:41 AM EDT 8:16 PM EDT
Moon 8:10 PM EDT (10/2) 9:25 AM EDT (10/2)
Length of Visible Light 12h 36m
Length of Day
11h 45m
Waning Gibbous, 94% of the Moon is Illuminated
Oct 2
Waning Gibbous
Oct 8
Last Quarter
Oct 15
New
Oct 21
First Quarter
Oct 29
Full

Hourly Weather History & Observations

Time (EDT) Temp. Heat Index Dew Point Humidity Pressure Visibility Wind Dir Wind Speed Gust Speed Precip Events Conditions
12:15 AM 68.4 °F - 65.1 °F 89% 29.89 in 10.0 mi East 3.5 mph - N/A   Overcast
12:35 AM 68.5 °F - 65.3 °F 89% 29.89 in 10.0 mi Calm Calm - N/A   Overcast
12:55 AM 68.9 °F - 65.5 °F 89% 29.89 in 10.0 mi East 3.5 mph - N/A   Overcast
1:15 AM 68.9 °F - 65.7 °F 89% 29.89 in 10.0 mi Calm Calm - N/A   Overcast
1:55 AM 69.1 °F - 66.2 °F 91% 29.88 in 10.0 mi Calm Calm - N/A   Overcast
2:15 AM 69.3 °F - 66.6 °F 91% 29.87 in 7.0 mi Calm Calm - N/A   Overcast
2:35 AM 69.3 °F - 66.9 °F 92% 29.87 in 5.0 mi Calm Calm - N/A   Overcast
2:55 AM 69.3 °F - 67.1 °F 93% 29.86 in 1.0 mi Calm Calm - N/A   Overcast
3:15 AM 69.4 °F - 67.5 °F 93% 29.86 in 0.5 mi Calm Calm - N/A Fog Fog
3:35 AM 69.6 °F - 67.8 °F 94% 29.86 in 0.5 mi Calm Calm - N/A Fog Fog
3:55 AM 70.0 °F - 68.2 °F 94% 29.86 in 0.2 mi Calm Calm - N/A Fog Fog
4:15 AM 70.3 °F - 68.5 °F 94% 29.86 in 0.2 mi Calm Calm - N/A Fog Fog
4:35 AM 70.7 °F - 68.9 °F 94% 29.86 in 0.2 mi Calm Calm - N/A Fog Fog
4:55 AM 71.2 °F - 69.4 °F 94% 29.85 in 0.2 mi Calm Calm - N/A Fog Fog
5:15 AM 71.6 °F - 69.8 °F 94% 29.85 in 0.5 mi SE 3.5 mph - N/A Fog Fog
5:35 AM 72.0 °F - 70.2 °F 94% 29.86 in 0.8 mi SE 4.6 mph - N/A   Overcast
5:55 AM 72.5 °F - 70.7 °F 94% 29.86 in 0.8 mi ESE 4.6 mph - N/A   Overcast
6:15 AM 72.7 °F - 70.9 °F 94% 29.86 in 1.0 mi ESE 5.8 mph - 0.01 in Rain Light Rain
6:35 AM 72.9 °F - 71.1 °F 94% 29.86 in 2.0 mi SE 3.5 mph - 0.01 in   Overcast
6:55 AM 73.0 °F - 71.4 °F 95% 29.86 in 2.0 mi ESE 3.5 mph - 0.01 in Rain Light Rain
7:15 AM 73.4 °F - 71.6 °F 94% 29.87 in 4.0 mi SE 3.5 mph - 0.01 in Rain Light Rain
7:35 AM 73.8 °F - 72.0 °F 94% 29.87 in 7.0 mi SE 3.5 mph - 0.01 in Rain Light Rain
7:55 AM 74.1 °F - 72.3 °F 94% 29.87 in 10.0 mi SE 3.5 mph - 0.01 in   Overcast
8:15 AM 74.3 °F - 72.5 °F 94% 29.87 in 10.0 mi SE 3.5 mph - N/A   Overcast
8:35 AM 74.3 °F - 72.5 °F 94% 29.89 in 10.0 mi SE 3.5 mph - N/A   Overcast
8:55 AM 74.5 °F - 72.5 °F 94% 29.89 in 10.0 mi SE 3.5 mph - N/A   Mostly Cloudy
9:15 AM 74.8 °F - 72.7 °F 93% 29.89 in 10.0 mi SE 5.8 mph - N/A   Mostly Cloudy
9:35 AM 75.4 °F - 73.0 °F 92% 29.90 in 10.0 mi SSE 6.9 mph - 0.01 in   Scattered Clouds
9:55 AM 75.9 °F - 73.0 °F 91% 29.90 in 10.0 mi SE 5.8 mph - 0.01 in   Mostly Cloudy
10:15 AM 76.5 °F - 73.4 °F 90% 29.89 in 10.0 mi SE 5.8 mph - N/A   Overcast
10:35 AM 77.9 °F - 73.9 °F 88% 29.90 in 10.0 mi South 4.6 mph - N/A   Overcast
10:55 AM 80.2 °F 85.0 °F 74.1 °F 82% 29.89 in 10.0 mi South 8.1 mph - N/A   Overcast
11:15 AM 81.1 °F 86.6 °F 74.1 °F 79% 29.89 in 10.0 mi South 9.2 mph - N/A   Overcast
11:35 AM 82.0 °F 88.1 °F 74.3 °F 77% 29.88 in 10.0 mi SSE 5.8 mph - N/A   Overcast
11:55 AM 81.5 °F 87.6 °F 74.7 °F 80% 29.88 in 10.0 mi SE 6.9 mph - N/A Rain Light Rain
12:15 PM 80.8 °F 86.1 °F 74.3 °F 81% 29.88 in 10.0 mi SSE 5.8 mph - N/A Rain Light Rain
12:35 PM 81.1 °F 86.8 °F 74.5 °F 80% 29.89 in 10.0 mi SSE 6.9 mph - N/A   Overcast
12:55 PM 80.2 °F 85.0 °F 74.1 °F 82% 29.88 in 10.0 mi SSE 9.2 mph - N/A   Overcast
1:15 PM 79.7 °F - 74.1 °F 83% 29.88 in 10.0 mi South 3.5 mph - N/A   Light Drizzle
1:35 PM 79.9 °F - 75.2 °F 86% 29.87 in 10.0 mi South 4.6 mph - N/A Rain Light Rain
1:55 PM 80.4 °F 86.0 °F 75.6 °F 85% 29.87 in 10.0 mi South 3.5 mph - N/A   Overcast
2:15 PM 80.6 °F 86.0 °F 75.0 °F 83% 29.87 in 10.0 mi SSE 5.8 mph - N/A Rain Light Rain
2:35 PM 80.4 °F 85.6 °F 74.8 °F 83% 29.86 in 10.0 mi South 8.1 mph - N/A Rain Light Rain
2:55 PM 81.0 °F 86.9 °F 75.4 °F 83% 29.86 in 10.0 mi South 6.9 mph - N/A Rain Light Rain
3:15 PM 81.1 °F 87.4 °F 75.4 °F 83% 29.87 in 10.0 mi South 8.1 mph - N/A   Scattered Clouds
3:35 PM 81.7 °F 88.0 °F 75.0 °F 80% 29.86 in 10.0 mi South 4.6 mph - N/A   Scattered Clouds
4:15 PM 85.3 °F 93.7 °F 74.8 °F 71% 29.86 in 10.0 mi SSE 5.8 mph - N/A   Scattered Clouds
4:35 PM 84.7 °F 93.2 °F 75.2 °F 73% 29.87 in 10.0 mi South 8.1 mph - N/A   Mostly Cloudy
4:55 PM 83.5 °F 91.2 °F 75.0 °F 76% 29.88 in 10.0 mi SSE 5.8 mph - N/A   Mostly Cloudy
5:15 PM 82.6 °F 89.7 °F 75.2 °F 78% 29.88 in 10.0 mi SSE 3.5 mph - N/A   Scattered Clouds
5:35 PM 83.1 °F 90.4 °F 75.0 °F 76% 29.88 in 10.0 mi SSE 6.9 mph - N/A   Scattered Clouds
5:55 PM 82.8 °F 89.5 °F 74.7 °F 76% 29.89 in 10.0 mi SSE 3.5 mph - N/A   Scattered Clouds
6:15 PM 82.0 °F 88.6 °F 74.8 °F 79% 29.89 in 10.0 mi SSE 5.8 mph - N/A   Clear
6:35 PM 80.8 °F 86.5 °F 75.0 °F 83% 29.90 in 10.0 mi SSE 5.8 mph - N/A   Clear
6:55 PM 79.9 °F - 74.5 °F 83% 29.90 in 10.0 mi SSE 4.6 mph - N/A   Clear
7:15 PM 79.2 °F - 74.3 °F 85% 29.92 in 10.0 mi SE 5.8 mph - N/A   Clear
7:35 PM 78.8 °F - 74.3 °F 86% 29.92 in 10.0 mi SSE 5.8 mph - N/A   Clear
7:55 PM 78.4 °F - 73.8 °F 85% 29.93 in 10.0 mi SSE 3.5 mph - N/A   Scattered Clouds
8:15 PM 78.1 °F - 73.6 °F 86% 29.94 in 10.0 mi SSE 4.6 mph - N/A   Mostly Cloudy
8:35 PM 77.7 °F - 73.4 °F 86% 29.94 in 10.0 mi SSE 4.6 mph - N/A   Overcast
8:55 PM 77.2 °F - 73.4 °F 88% 29.94 in 10.0 mi SSE 4.6 mph - N/A   Mostly Cloudy
9:15 PM 77.0 °F - 73.4 °F 89% 29.95 in 10.0 mi SSE 3.5 mph - N/A   Mostly Cloudy
9:35 PM 77.0 °F - 73.6 °F 89% 29.96 in 10.0 mi Calm Calm - N/A   Overcast
10:15 PM 77.0 °F - 73.8 °F 90% 29.96 in 10.0 mi SSE 4.6 mph - N/A   Mostly Cloudy
10:35 PM 77.0 °F - 73.8 °F 90% 29.96 in 10.0 mi SSE 4.6 mph - N/A   Mostly Cloudy
10:55 PM 77.0 °F - 73.6 °F 89% 29.97 in 10.0 mi SSE 4.6 mph - N/A   Scattered Clouds
11:15 PM 76.8 °F - 73.4 °F 89% 29.97 in 10.0 mi SSE 3.5 mph - N/A   Mostly Cloudy
11:55 PM 76.5 °F - 73.4 °F 90% 29.98 in 10.0 mi SSE 5.8 mph - N/A   Overcast